EHI
0 0 0 0 0 0 1 1 1 1 2 4 4 4 4 5 6 8 12 14 15 18 20 20 17 16 16 14 11 7 5 9 11 10 9 9 9 8 9 9 9 10 10 9
0 0 0 0 0 0 0 0 0 1 2 4 4 4 4 5 6 7 11 14 16 18 20 19 17 16 16 15 11 7 6 9 11 12 11 11 12 13 14 13 13 12 11 9
0 0 0 0 0 0 0 0 0 1 2 3 3 3 3 5 6 6 8 12 14 17 19 19 17 15 15 14 11 7 6 8 10 11 12 13 14 15 17 17 17 15 11 9
0 0 0 0 0 0 1 0 0 0 1 1 1 1 2 4 6 7 8 9 12 16 19 19 18 16 14 13 11 9 7 7 8 9 11 12 13 14 16 17 18 16 12 10
0 0 0 0 0 0 0 0 0 0 0 0 0 0 1 3 5 6 7 9 11 15 17 17 17 16 14 12 11 10 8 7 8 9 10 12 13 14 15 17 17 15 13 11
0 0 0 0 0 0 0 0 0 0 0 0 0 0 0 1 3 5 6 9 14 16 16 16 16 15 13 12 11 9 8 8 11 12 13 14 16 17 16 17 16 14 11 10
0 0 0 0 0 0 1 1 0 0 0 1 1 1 1 1 3 5 7 10 15 18 18 18 17 16 13 11 10 9 8 10 13 15 15 16 18 19 18 16 14 12 10 8
0 0 0 1 1 1 2 2 1 1 0 0 1 2 1 2 5 6 8 11 16 19 19 17 17 16 13 10 10 10 11 11 13 14 13 15 17 19 18 15 12 10 9 7
1 1 1 1 2 3 3 3 3 2 1 1 1 3 3 4 6 6 7 10 14 16 16 15 14 14 11 8 8 11 13 14 14 14 13 14 16 17 16 14 10 8 8 7
2 1 0 1 2 2 2 3 3 3 3 3 3 4 6 7 7 7 8 10 12 13 13 12 11 10 8 7 9 12 15 16 15 15 15 14 15 16 15 13 10 8 7 6
2 1 0 0 1 1 1 1 2 2 2 3 4 5 7 8 8 7 7 9 11 11 11 11 9 7 7 8 12 14 16 17 17 17 16 15 14 13 11 10 9 7 6 5
2 1 0 0 0 0 0 0 1 1 1 1 3 4 5 6 6 5 6 8 10 10 10 10 9 8 7 9 12 14 16 18 18 17 16 14 11 8 6 5 5 3 3 2
1 0 0 0 0 0 0 0 0 0 0 0 1 2 3 4 4 4 3 5 6 7 8 9 8 7 7 7 10 12 14 16 17 16 13 10 8 6 5 4 3 2 1 0
0 0 0 0 0 0 0 0 0 0 0 1 1 1 2 3 4 3 3 3 3 4 6 8 7 6 5 5 7 8 10 12 14 12 9 6 6 6 6 5 4 3 1 0
0 0 0 0 0 0 0 0 0 0 1 2 2 1 1 2 3 3 3 3 3 4 5 6 6 5 5 5 6 6 7 8 9 8 5 5 5 5 4 4 4 3 1 0
0 0 0 0 0 0 0 0 0 0 1 2 2 1 0 2 3 3 3 3 3 4 5 5 5 5 5 5 5 5 5 5 5 4 4 5 5 5 4 3 3 2 1 0
0 0 0 0 0 0 0 0 0 0 1 1 1 0 0 1 2 2 2 2 2 3 4 4 4 4 4 5 4 4 4 3 3 3 4 6 6 5 4 3 3 2 1 0
0 0 0 0 0 0 0 0 0 0 0 0 0 0 0 1 1 1 1 1 1 2 3 3 3 3 3 4 3 3 3 3 3 4 5 6 6 5 3 2 2 1 0 0
0 0 0 0 0 0 0 0 0 0 0 0 0 0 0 0 0 0 0 0 1 2 3 3 3 3 3 3 3 3 3 3 3 4 5 5 5 5 2 1 1 0 0 0
0 0 0 0 0 0 0 0 0 0 0 0 0 0 0 0 0 0 0 0 1 1 2 2 2 2 2 2 2 2 2 2 2 3 3 3 4 4 2 1 0 0 0 0
0 0 0 0 0 0 0 0 0 0 0 0 0 0 0 0 0 0 0 0 0 0 0 1 1 1 1 1 1 1 1 1 1 1 1 1 3 3 2 1 0 0 0 0
0 0 0 0 0 0 0 0 0 0 0 0 0 0 0 0 0 0 0 0 0 0 0 0 0 0 0 0 0 0 0 0 0 0 0 1 2 2 1 0 0 0 0 0
0 0 0 0 0 0 0 0 0 0 0 0 0 0 0 0 0 0 0 0 0 0 0 0 0 0 0 0 0 0 0 0 0 0 0 0 1 1 0 0 0 0 0 0
0 0 0 0 0 0 0 0 0 0 0 0 0 0 0 0 0 0 0 0 0 0 0 0 0 0 0 0 0 0 0 0 0 0 0 0 0 0 0 0 0 0 0 0
0 0 0 0 0 0 0 0 0 0 0 0 0 0 0 0 0 0 0 0 0 0 0 0 0 0 0 0 0 0 0 0 0 0 0 0 0 0 0 0 0 0 0 0
0 0 0 0 0 0 0 0 0 0 0 0 0 0 0 0 0 0 0 0 0 0 0 0 0 0 0 0 0 0 0 0 0 0 0 0 0 0 0 0 0 0 0 0
0 0 0 0 0 0 0 0 0 0 0 0 0 0 0 0 0 0 0 0 0 0 0 0 0 0 0 0 0 0 0 0 0 0 0 0 0 0 0 0 0 0 0 0
Wind_Speed
9 7 7 9 10 11 13 13 12 8 6 4 3 3 3 3 3 3 3 3 3 3 3 3 3 3 3 2 2 3 3 3 3 3 3 2 2 2 3 3 4 4 4 4
9 9 7 9 10 11 12 12 11 9 6 1 1 2 3 4 3 3 3 3 3 2 3 3 3 3 3 3 2 3 3 3 2 2 3 3 3 2 3 3 3 3 4 4
10 9 9 11 8 9 10 9 9 9 5 2 3 3 3 3 3 3 2 2 2 2 2 2 2 3 3 3 3 3 3 3 3 3 3 3 3 3 3 3 3 3 4 4
8 9 13 3 1 4 6 6 5 4 3 1 2 2 2 2 3 2 2 2 1 1 2 2 2 2 3 3 3 3 3 3 2 2 3 3 3 3 3 3 3 3 4 4
8 10 8 4 3 3 6 5 2 3 3 2 2 3 3 2 2 2 1 1 1 1 1 2 1 2 2 2 3 3 2 2 2 2 3 3 3 3 3 3 3 4 4 5
8 10 8 2 3 1 5 6 1 1 2 2 4 5 2 2 1 1 1 1 1 1 1 1 1 1 2 2 2 2 2 2 3 3 3 4 4 4 3 4 4 4 4 4
9 9 3 3 2 2 7 0 3 2 2 3 4 3 2 1 1 1 1 1 1 1 1 1 1 2 2 2 2 3 3 3 3 3 4 4 4 4 4 4 4 4 4 5
7 9 3 4 0 1 4 4 2 2 2 2 2 1 0 1 1 2 2 1 1 1 0 1 1 2 2 1 2 2 2 2 3 3 3 2 3 3 4 4 4 4 4 5
2 1 5 3 3 3 3 3 3 3 3 3 2 2 2 1 1 1 2 1 1 1 1 2 2 2 1 1 2 2 2 2 2 3 3 2 3 3 4 4 4 3 4 4
2 1 1 2 2 3 3 4 4 3 3 3 3 3 2 2 1 2 2 2 2 2 2 2 2 2 2 2 2 2 3 3 2 3 3 3 3 3 3 3 3 4 4 4
4 2 2 1 3 4 4 3 3 3 3 3 3 3 2 2 2 1 1 1 2 2 2 2 2 2 3 3 3 3 3 3 3 3 3 3 3 3 4 3 3 4 4 4
3 2 4 3 3 4 4 3 3 3 3 3 2 3 2 2 1 1 1 2 2 2 2 2 2 2 3 3 3 3 3 3 3 3 3 3 3 3 3 4 3 4 5 5
4 4 4 3 3 3 4 3 3 2 2 2 2 2 2 1 2 2 2 2 2 2 2 2 2 3 3 3 3 3 3 3 3 3 3 3 3 3 3 3 4 5 5 5
2 2 3 3 3 3 3 3 2 1 1 2 1 1 1 1 2 2 2 2 2 3 3 3 3 3 3 3 3 4 4 3 4 4 4 4 4 4 4 4 3 3 4 5
2 2 2 2 2 1 1 1 1 1 1 1 1 2 2 2 2 3 3 3 3 3 3 3 3 3 3 3 3 4 4 4 3 4 4 4 4 4 4 4 4 4 3 2
2 1 1 1 1 1 0 1 1 2 2 2 2 2 2 2 3 3 3 3 3 3 3 3 3 3 4 4 4 4 4 4 5 5 5 5 4 4 4 3 3 3 3 3
1 1 1 1 1 1 1 1 2 2 2 2 2 2 3 3 3 3 3 3 3 3 3 3 4 4 4 4 5 5 4 4 5 5 5 4 4 4 4 4 4 3 3 2
1 1 1 2 2 2 2 2 2 2 3 3 2 2 2 2 3 2 3 3 3 3 3 3 3 4 4 4 5 5 5 5 4 4 4 4 4 4 4 4 4 4 3 2
1 1 1 2 2 2 2 2 2 2 2 2 2 2 2 2 2 3 3 3 3 3 3 3 3 5 5 5 6 5 5 6 5 4 4 4 5 4 4 4 3 4 3 2
1 1 1 2 2 2 2 2 2 2 3 2 2 2 2 2 2 3 3 4 3 3 3 3 4 4 4 4 6 5 5 5 5 4 4 4 4 4 4 4 3 3 3 3
1 1 1 2 2 2 2 2 2 2 2 2 3 3 3 3 3 3 4 3 3 4 4 3 4 4 4 4 5 5 5 4 4 4 4 3 3 4 4 3 3 3 3 3
1 1 1 2 2 2 2 2 2 2 2 2 3 3 4 4 4 3 4 4 4 3 4 3 3 3 5 6 5 5 5 4 4 4 3 4 4 4 4 4 3 3 3 3
1 1 1 1 2 2 2 2 3 2 2 3 4 4 4 4 4 3 3 3 4 3 4 3 4 5 6 6 5 5 4 5 4 4 4 4 4 4 4 4 3 3 3 3
1 1 1 1 1 1 1 2 2 2 2 2 3 3 3 3 3 3 3 3 3 4 4 3 3 5 5 5 4 4 4 4 4 4 4 4 4 4 4 4 4 4 3 4
2 1 1 1 1 1 1 1 1 1 2 2 3 3 3 3 3 4 4 5 4 5 4 2 3 5 4 4 4 4 4 3 4 4 4 4 4 4 4 4 4 4 3 3
2 2 2 2 2 2 2 2 2 1 2 2 2 2 3 3 3 3 3 4 5 5 5 3 3 3 4 4 4 4 4 3 3 4 4 4 4 4 4 4 5 4 3 3
2 2 1 1 2 2 2 2 2 2 2 3 3 3 3 3 3 4 4 4 4 4 4 4 3 3 3 4 3 4 4 3 3 3 3 3 4 4 4 5 4 3 3 2
Wind_Direction
259 267 255 245 242 236 239 253 260 257 246 230 190 182 169 163 159 156 155 153 158 158 147 149 151 157 166 171 172 180 190 191 189 191 196 198 204 212 220 220 216 219 224 224
246 242 242 249 250 243 242 248 253 254 257 275 151 156 172 176 178 179 176 169 165 162 150 150 154 165 174 184 189 192 201 205 204 205 204 205 204 214 224 224 217 216 219 225
247 239 242 241 251 249 239 244 250 250 255 189 179 185 197 193 188 190 181 173 174 169 159 162 169 182 184 185 187 192 205 216 215 217 219 220 217 216 226 225 223 224 225 228
250 237 239 229 347 268 253 251 267 264 260 239 225 212 185 186 185 190 182 182 174 160 154 157 164 174 177 178 185 195 207 219 218 226 227 229 229 230 234 231 230 233 233 233
248 238 236 204 193 246 246 243 266 264 249 224 213 200 176 153 179 204 200 189 177 160 148 141 149 170 177 183 193 202 213 226 231 234 231 232 235 238 239 233 232 236 235 235
245 248 242 137 86 304 248 221 80 300 252 233 214 226 185 125 193 197 112 108 142 150 137 138 156 179 179 176 197 217 227 233 239 240 235 238 235 234 233 232 232 235 235 238
245 248 248 59 33 237 235 87 34 322 288 258 250 312 36 117 165 148 130 129 144 150 146 177 201 181 186 204 227 239 244 237 237 239 237 238 234 231 228 233 234 237 236 236
240 242 228 58 184 288 11 20 351 326 309 295 291 320 148 166 158 151 144 144 136 140 182 230 229 206 201 228 246 240 236 227 227 237 243 238 226 230 233 233 231 232 231 236
282 342 52 35 26 13 344 332 337 332 322 301 277 263 241 203 176 174 182 184 193 202 226 235 236 235 236 245 264 255 239 235 234 244 251 254 241 231 225 222 234 234 231 233
236 200 34 10 2 354 338 327 323 316 304 286 267 256 240 200 190 194 198 202 214 218 222 231 233 246 250 251 255 254 247 245 248 250 253 251 250 243 243 235 240 244 248 247
237 246 277 315 350 344 334 325 320 323 314 291 261 245 231 198 211 222 229 241 238 240 240 246 253 258 259 255 249 250 251 251 251 250 253 259 258 266 259 256 271 270 269 263
272 276 279 290 320 327 323 318 318 313 312 310 274 243 233 216 228 244 248 248 250 254 267 279 281 274 272 262 252 252 254 258 257 257 256 255 256 255 241 250 251 252 266 276
287 283 289 291 299 311 312 317 319 316 313 303 283 240 244 250 258 256 258 261 266 274 284 293 289 282 283 280 265 258 262 267 268 264 261 263 264 265 267 241 226 233 235 240
269 267 265 283 298 310 319 329 334 330 311 298 273 248 244 250 266 267 275 281 275 270 272 280 283 283 284 276 270 268 265 253 257 260 263 259 255 255 258 265 263 251 222 215
274 286 283 292 296 308 330 344 336 337 324 288 259 251 249 259 273 283 283 283 275 270 278 290 294 299 294 275 269 269 270 265 263 266 262 259 256 254 253 255 263 273 277 220
296 313 281 272 291 307 295 329 327 334 311 289 270 254 253 256 261 271 277 278 279 283 295 300 302 299 287 278 271 262 257 258 259 263 261 258 258 263 262 258 258 262 267 271
264 275 313 328 317 318 330 330 326 313 304 296 281 263 254 248 254 263 275 285 286 285 285 287 291 290 285 282 279 275 270 252 239 250 257 262 263 264 268 267 262 260 259 258
268 314 322 315 318 324 322 315 315 313 316 318 306 290 274 266 272 284 291 292 292 291 290 289 291 287 281 281 283 283 277 272 262 262 264 265 268 268 269 267 267 269 266 229
11 354 340 322 312 308 307 315 329 346 347 337 328 318 302 295 295 297 300 294 286 281 294 301 288 277 280 289 290 275 279 280 274 267 264 257 258 265 268 269 272 276 277 275
352 345 342 336 335 329 325 331 343 355 353 345 341 329 316 304 293 295 298 295 302 315 309 304 292 290 290 291 288 282 280 277 276 272 267 265 268 272 269 267 269 270 277 278
357 356 340 337 342 333 334 338 337 345 348 347 342 332 324 314 305 305 297 295 317 324 310 286 278 286 289 301 281 281 281 282 282 279 275 273 271 272 272 271 273 275 277 278
23 354 339 342 342 345 352 353 341 341 348 332 320 325 329 325 319 316 309 316 327 331 304 297 298 325 320 302 283 283 284 287 287 286 287 286 282 277 276 275 274 280 283 282
348 328 326 330 337 9 13 0 356 353 348 330 326 331 334 330 327 326 321 331 329 336 307 313 335 333 310 287 284 288 291 291 292 292 290 286 283 280 278 275 275 274 273 274
351 343 334 321 332 14 22 10 347 339 333 322 326 332 328 327 329 323 322 336 335 319 308 329 330 307 288 289 294 294 297 300 299 295 295 292 289 284 281 281 277 272 271 276
334 321 308 305 304 318 322 284 285 316 329 336 333 337 331 332 326 324 327 331 327 309 310 320 287 281 281 295 301 304 299 299 299 296 295 294 289 285 283 282 278 276 277 278
314 303 319 313 318 309 302 304 312 325 329 326 327 333 330 329 323 317 312 315 317 312 309 317 317 293 294 298 303 302 300 292 281 280 287 290 291 290 289 289 284 280 281 282
287 286 283 290 304 311 316 318 324 328 327 324 323 328 331 328 326 330 325 319 319 317 314 314 310 300 298 302 306 306 304 303 298 293 290 290 291 290 287 282 282 284 286 289